Find Flock 4q-36

NORAD ID: 58274 Int'l Des: 2023-174 Owner: PLAN Country: US Constellation: planet operational
LEOCIRCULARRETROGRADESSO

当前视图

正在加载3D地球...

About Flock 4q-36

Flock 4q-36 (NORAD 58274) is a planet constellation satellite launched Nov 11, 2023 by PLAN of US. It operates in LEO, CIRCULAR, RETROGRADE, SSO orbit with a mass of 5.70 kg.

关于 Flock 4q-36

正在加载描述...

即将过境

Passes for default location (London). Set your location on the main map for personalized predictions.

高度历史

Loading altitude history...

两行轨道根数

1 58274U 23174U 26194.80380906 .00076180 00000-0 83299-3 0 9995
2 58274 97.3852 288.3000 0003138 35.9650 324.1819 15.63068323149982
Epoch: Jul 13, 2026 • Age: 13 hours

当前状态

高度 385.1 km
远地点 / 近地点 N/A
速度 7.69 km/s
星下点 52.29°N, 130.06°W
发射日期 Nov 11, 2023
运行时间 2.6 years
类型 earth observation

技术详情

分类 Payload
质量 5.70 kg
干质量 5.70 kg
总质量 5.70 kg
长度 0.30 m
直径 0.10 m
跨度 0.30 m
形状 Box+2 pan
制造商 PLAN
平台类型 Cubesat 3U
阶段状态 In Orbit
所有者/国家 PLAN/US

Most Searched